Location: Bonaustraße
(48.4603°N, 11.9280°E)
Time: 03:07:48
(UTC+01:00)

Envisat - Pass Details

Date: 21 January 2021
Orbit: 764 x 766 km, 98.1° (Epoch: 05 March)

Event Time Altitude Azimuth Distance (km) Brightness Sun altitude
Rises 06:21:07 0° 12° (NNE) 3,245 6.2 -15.1°
Reaches altitude 10° 06:23:26 10° 11° (N) 2,314 5.5 -14.8°
Maximum altitude 06:28:31 74° 287° (WNW) 801 2.9 -13.9°
Drops below altitude 10° 06:33:34 10° 203° (SSW) 2,296 5.4 -13.1°
Sets 06:35:51 0° 202° (SSW) 3,218 6.2 -12.8°
